This is the latest recevied weather packets stored in our database for station/object KG5TTF. If no packets are shown the sender has not sent any weather packets the latest 10 day(s).
| Time | Temp. | Humidity | Pressure | Rain* | Wind** | Luminosity | Snow |
|---|---|---|---|---|---|---|---|
| 1777754809 | 18.89° C | 16% | 1024.7 hPa | 0 mm | - | 817 W/m² | - |
| 1777754507 | 18.33° C | 15% | 1024.7 hPa | 0 mm | - | 826 W/m² | - |
| 1777754204 | 19.44° C | 16% | 1024.8 hPa | 0 mm | - | 835 W/m² | - |
| 1777753903 | 18.89° C | 18% | 1024.7 hPa | 0 mm | - | 841 W/m² | - |
| 1777753596 | 17.78° C | 18% | 1024.8 hPa | 0 mm | - | 851 W/m² | - |
| 1777753295 | 18.33° C | 15% | 1025 hPa | 0 mm | - | 858 W/m² | - |
| 1777752991 | 17.78° C | 15% | 1025 hPa | 0 mm | - | 867 W/m² | - |
| 1777752688 | 18.33° C | 16% | 1025 hPa | 0 mm | - | 874 W/m² | - |
| 1777752383 | 17.78° C | 16% | 1025.2 hPa | 0 mm | - | 880 W/m² | - |
| 1777752081 | 18.33° C | 15% | 1024.9 hPa | 0 mm | - | 889 W/m² | - |
| 1777751780 | 17.78° C | 15% | 1025 hPa | 0 mm | - | 894 W/m² | - |
| 1777751474 | 18.33° C | 16% | 1024.9 hPa | 0 mm | - | 900 W/m² | - |
| 1777751172 | 17.78° C | 16% | 1025.2 hPa | 0 mm | - | 907 W/m² | - |
| 1777750868 | 17.22° C | 18% | 1025 hPa | 0 mm | - | 907 W/m² | - |
| 1777750565 | 17.78° C | 15% | 1025.3 hPa | 0 mm | - | 908 W/m² | - |
| 1777750256 | 17.22° C | 16% | 1025.3 hPa | 0 mm | - | 916 W/m² | - |
| 1777749952 | 17.78° C | 16% | 1025.3 hPa | 0 mm | - | 915 W/m² | - |
| 1777749650 | 18.33° C | 15% | 1025.3 hPa | 0 mm | - | 918 W/m² | - |
| 1777749346 | 17.78° C | 17% | 1025.5 hPa | 0 mm | - | 917 W/m² | - |
| 1777749044 | 17.22° C | 18% | 1025.5 hPa | 0 mm | - | 919 W/m² | - |
| 1777748741 | 16.67° C | 18% | 1025.5 hPa | 0 mm | - | 919 W/m² | - |
| 1777748438 | 16.67° C | 18% | 1025.7 hPa | 0 mm | - | 918 W/m² | - |
| 1777748133 | 16.11° C | 19% | 1025.9 hPa | 0 mm | - | 917 W/m² | - |
| 1777747831 | 16.67° C | 18% | 1025.8 hPa | 0 mm | - | 916 W/m² | - |
| 1777747526 | 17.22° C | 19% | 1025.9 hPa | 0 mm | - | 915 W/m² | - |
* Rain latest hour (hover to see other rain measurements)
** Current wind speed in m/s (hover to see current wind gust speed)